locationName,lineName,date,time,countIn,countOut
�����w�O,��������,2022/6/1,0:00,0,0
�����w�O,��������,2022/6/1,1:00,0,0
�����w�O,��������,2022/6/1,2:00,0,0
�����w�O,��������,2022/6/1,3:00,0,0
�����w�O,��������,2022/6/1,4:00,0,0
�����w�O,��������,2022/6/1,5:00,0,0
�����w�O,��������,2022/6/1,6:00,0,0
�����w�O,��������,2022/6/1,7:00,0,0
�����w�O,��������,2022/6/1,8:00,0,0
�����w�O,��������,2022/6/1,9:00,0,0
�����w�O,��������,2022/6/1,10:00,0,0
�����w�O,��������,2022/6/1,11:00,164,157
�����w�O,��������,2022/6/1,12:00,167,163
�����w�O,��������,2022/6/1,13:00,137,134
�����w�O,��������,2022/6/1,14:00,124,128
�����w�O,��������,2022/6/1,15:00,235,130
�����w�O,��������,2022/6/1,16:00,293,255
�����w�O,��������,2022/6/1,17:00,346,252
�����w�O,��������,2022/6/1,18:00,213,188
�����w�O,��������,2022/6/1,19:00,196,178
�����w�O,��������,2022/6/1,20:00,117,93
�����w�O,��������,2022/6/1,21:00,84,60
�����w�O,��������,2022/6/1,22:00,34,20
�����w�O,��������,2022/6/1,23:00,14,13
�����w�O,��������,2022/6/2,0:00,8,5
�����w�O,��������,2022/6/2,1:00,1,0
�����w�O,��������,2022/6/2,2:00,1,0
�����w�O,��������,2022/6/2,3:00,1,3
�����w�O,��������,2022/6/2,4:00,2,0
�����w�O,��������,2022/6/2,5:00,13,12
�����w�O,��������,2022/6/2,6:00,100,67
�����w�O,��������,2022/6/2,7:00,202,319
�����w�O,��������,2022/6/2,8:00,115,231
�����w�O,��������,2022/6/2,9:00,111,91
�����w�O,��������,2022/6/2,10:00,173,161
�����w�O,��������,2022/6/2,11:00,123,152
�����w�O,��������,2022/6/2,12:00,118,153
�����w�O,��������,2022/6/2,13:00,137,114
�����w�O,��������,2022/6/2,14:00,120,122
�����w�O,��������,2022/6/2,15:00,188,120
�����w�O,��������,2022/6/2,16:00,199,172
�����w�O,��������,2022/6/2,17:00,255,189
�����w�O,��������,2022/6/2,18:00,319,177
�����w�O,��������,2022/6/2,19:00,194,156
�����w�O,��������,2022/6/2,20:00,110,82
�����w�O,��������,2022/6/2,21:00,93,90
�����w�O,��������,2022/6/2,22:00,63,54
�����w�O,��������,2022/6/2,23:00,28,20
�����w�O,��������,2022/6/3,0:00,11,4
�����w�O,��������,2022/6/3,1:00,3,0
�����w�O,��������,2022/6/3,2:00,2,1
�����w�O,��������,2022/6/3,3:00,0,1
�����w�O,��������,2022/6/3,4:00,2,0
�����w�O,��������,2022/6/3,5:00,6,11
�����w�O,��������,2022/6/3,6:00,83,69
�����w�O,��������,2022/6/3,7:00,202,282
�����w�O,��������,2022/6/3,8:00,120,262
�����w�O,��������,2022/6/3,9:00,143,153
�����w�O,��������,2022/6/3,10:00,169,213
�����w�O,��������,2022/6/3,11:00,156,172
�����w�O,��������,2022/6/3,12:00,184,169
�����w�O,��������,2022/6/3,13:00,202,163
�����w�O,��������,2022/6/3,14:00,158,153
�����w�O,��������,2022/6/3,15:00,255,134
�����w�O,��������,2022/6/3,16:00,277,186
�����w�O,��������,2022/6/3,17:00,333,222
�����w�O,��������,2022/6/3,18:00,305,228
�����w�O,��������,2022/6/3,19:00,249,263
�����w�O,��������,2022/6/3,20:00,125,106
�����w�O,��������,2022/6/3,21:00,105,88
�����w�O,��������,2022/6/3,22:00,46,38
�����w�O,��������,2022/6/3,23:00,57,27
�����w�O,��������,2022/6/4,0:00,14,6
�����w�O,��������,2022/6/4,1:00,10,7
�����w�O,��������,2022/6/4,2:00,4,2
�����w�O,��������,2022/6/4,3:00,3,1
�����w�O,��������,2022/6/4,4:00,7,4
�����w�O,��������,2022/6/4,5:00,76,81
�����w�O,��������,2022/6/4,6:00,50,56
�����w�O,��������,2022/6/4,7:00,99,131
�����w�O,��������,2022/6/4,8:00,115,168
�����w�O,��������,2022/6/4,9:00,171,194
�����w�O,��������,2022/6/4,10:00,210,299
�����w�O,��������,2022/6/4,11:00,221,303
�����w�O,��������,2022/6/4,12:00,279,358
�����w�O,��������,2022/6/4,13:00,289,252
�����w�O,��������,2022/6/4,14:00,279,211
�����w�O,��������,2022/6/4,15:00,282,192
�����w�O,��������,2022/6/4,16:00,297,202
�����w�O,��������,2022/6/4,17:00,285,239
�����w�O,��������,2022/6/4,18:00,274,226
�����w�O,��������,2022/6/4,19:00,173,231
�����w�O,��������,2022/6/4,20:00,128,104
�����w�O,��������,2022/6/4,21:00,107,100
�����w�O,��������,2022/6/4,22:00,101,78
�����w�O,��������,2022/6/4,23:00,43,25
�����w�O,��������,2022/6/5,0:00,21,9
�����w�O,��������,2022/6/5,1:00,2,2
�����w�O,��������,2022/6/5,2:00,4,0
�����w�O,��������,2022/6/5,3:00,3,2
�����w�O,��������,2022/6/5,4:00,4,6
�����w�O,��������,2022/6/5,5:00,16,11
�����w�O,��������,2022/6/5,6:00,52,29
�����w�O,��������,2022/6/5,7:00,60,83
�����w�O,��������,2022/6/5,8:00,107,125
�����w�O,��������,2022/6/5,9:00,175,223
�����w�O,��������,2022/6/5,10:00,246,208
�����w�O,��������,2022/6/5,11:00,198,287
�����w�O,��������,2022/6/5,12:00,203,246
�����w�O,��������,2022/6/5,13:00,213,189
�����w�O,��������,2022/6/5,14:00,227,218
�����w�O,��������,2022/6/5,15:00,188,87
�����w�O,��������,2022/6/5,16:00,191,149
�����w�O,��������,2022/6/5,17:00,152,150
�����w�O,��������,2022/6/5,18:00,122,108
�����w�O,��������,2022/6/5,19:00,73,99
�����w�O,��������,2022/6/5,20:00,50,35
�����w�O,��������,2022/6/5,21:00,27,37
�����w�O,��������,2022/6/5,22:00,16,13
�����w�O,��������,2022/6/5,23:00,6,2
�����w�O,��������,2022/6/6,0:00,4,1
�����w�O,��������,2022/6/6,1:00,0,0
�����w�O,��������,2022/6/6,2:00,1,1
�����w�O,��������,2022/6/6,3:00,1,0
�����w�O,��������,2022/6/6,4:00,2,1
�����w�O,��������,2022/6/6,5:00,11,6
�����w�O,��������,2022/6/6,6:00,86,63
�����w�O,��������,2022/6/6,7:00,214,393
�����w�O,��������,2022/6/6,8:00,110,221
�����w�O,��������,2022/6/6,9:00,105,95
�����w�O,��������,2022/6/6,10:00,162,205
�����w�O,��������,2022/6/6,11:00,134,167
�����w�O,��������,2022/6/6,12:00,153,172
�����w�O,��������,2022/6/6,13:00,163,118
�����w�O,��������,2022/6/6,14:00,137,125
�����w�O,��������,2022/6/6,15:00,176,103
�����w�O,��������,2022/6/6,16:00,237,160
�����w�O,��������,2022/6/6,17:00,323,179
�����w�O,��������,2022/6/6,18:00,347,170
�����w�O,��������,2022/6/6,19:00,210,195
�����w�O,��������,2022/6/6,20:00,95,60
�����w�O,��������,2022/6/6,21:00,78,75
�����w�O,��������,2022/6/6,22:00,33,32
�����w�O,��������,2022/6/6,23:00,3,4
�����w�O,��������,2022/6/7,0:00,3,2
�����w�O,��������,2022/6/7,1:00,2,0
�����w�O,��������,2022/6/7,2:00,2,1
�����w�O,��������,2022/6/7,3:00,1,2
�����w�O,��������,2022/6/7,4:00,2,2
�����w�O,��������,2022/6/7,5:00,12,6
�����w�O,��������,2022/6/7,6:00,87,65
�����w�O,��������,2022/6/7,7:00,211,324
�����w�O,��������,2022/6/7,8:00,139,287
�����w�O,��������,2022/6/7,9:00,109,133
�����w�O,��������,2022/6/7,10:00,146,160
�����w�O,��������,2022/6/7,11:00,170,200
�����w�O,��������,2022/6/7,12:00,148,159
�����w�O,��������,2022/6/7,13:00,141,127
�����w�O,��������,2022/6/7,14:00,146,113
�����w�O,��������,2022/6/7,15:00,195,103
�����w�O,��������,2022/6/7,16:00,215,167
�����w�O,��������,2022/6/7,17:00,269,228
�����w�O,��������,2022/6/7,18:00,269,177
�����w�O,��������,2022/6/7,19:00,182,193
�����w�O,��������,2022/6/7,20:00,97,73
�����w�O,��������,2022/6/7,21:00,90,78
�����w�O,��������,2022/6/7,22:00,54,31
�����w�O,��������,2022/6/7,23:00,14,6
�����w�O,��������,2022/6/8,0:00,2,2
�����w�O,��������,2022/6/8,1:00,0,1
�����w�O,��������,2022/6/8,2:00,0,0
�����w�O,��������,2022/6/8,3:00,0,1
�����w�O,��������,2022/6/8,4:00,2,3
�����w�O,��������,2022/6/8,5:00,8,4
�����w�O,��������,2022/6/8,6:00,96,60
�����w�O,��������,2022/6/8,7:00,210,318
�����w�O,��������,2022/6/8,8:00,131,253
�����w�O,��������,2022/6/8,9:00,117,146
�����w�O,��������,2022/6/8,10:00,140,153
�����w�O,��������,2022/6/8,11:00,131,168
�����w�O,��������,2022/6/8,12:00,178,175
�����w�O,��������,2022/6/8,13:00,131,96
�����w�O,��������,2022/6/8,14:00,141,121
�����w�O,��������,2022/6/8,15:00,230,133
�����w�O,��������,2022/6/8,16:00,252,177
�����w�O,��������,2022/6/8,17:00,313,227
�����w�O,��������,2022/6/8,18:00,262,200
�����w�O,��������,2022/6/8,19:00,200,182
�����w�O,��������,2022/6/8,20:00,119,86
�����w�O,��������,2022/6/8,21:00,197,168
�����w�O,��������,2022/6/8,22:00,50,19
�����w�O,��������,2022/6/8,23:00,14,10
�����w�O,��������,2022/6/9,0:00,16,3
�����w�O,��������,2022/6/9,1:00,3,5
�����w�O,��������,2022/6/9,2:00,0,1
�����w�O,��������,2022/6/9,3:00,0,1
�����w�O,��������,2022/6/9,4:00,2,1
�����w�O,��������,2022/6/9,5:00,14,17
�����w�O,��������,2022/6/9,6:00,102,64
�����w�O,��������,2022/6/9,7:00,197,329
�����w�O,��������,2022/6/9,8:00,123,235
�����w�O,��������,2022/6/9,9:00,123,115
�����w�O,��������,2022/6/9,10:00,178,254
�����w�O,��������,2022/6/9,11:00,129,141
�����w�O,��������,2022/6/9,12:00,137,150
�����w�O,��������,2022/6/9,13:00,124,139
�����w�O,��������,2022/6/9,14:00,164,155
�����w�O,��������,2022/6/9,15:00,225,129
�����w�O,��������,2022/6/9,16:00,235,158
�����w�O,��������,2022/6/9,17:00,288,228
�����w�O,��������,2022/6/9,18:00,298,246
�����w�O,��������,2022/6/9,19:00,215,164
�����w�O,��������,2022/6/9,20:00,121,119
�����w�O,��������,2022/6/9,21:00,105,83
�����w�O,��������,2022/6/9,22:00,44,24
�����w�O,��������,2022/6/9,23:00,21,1
�����w�O,��������,2022/6/10,0:00,5,3
�����w�O,��������,2022/6/10,1:00,2,0
�����w�O,��������,2022/6/10,2:00,2,0
�����w�O,��������,2022/6/10,3:00,0,2
�����w�O,��������,2022/6/10,4:00,2,3
�����w�O,��������,2022/6/10,5:00,11,5
�����w�O,��������,2022/6/10,6:00,97,64
�����w�O,��������,2022/6/10,7:00,189,333
�����w�O,��������,2022/6/10,8:00,115,222
�����w�O,��������,2022/6/10,9:00,133,106
�����w�O,��������,2022/6/10,10:00,159,186
�����w�O,��������,2022/6/10,11:00,137,207
�����w�O,��������,2022/6/10,12:00,137,172
�����w�O,��������,2022/6/10,13:00,171,167
�����w�O,��������,2022/6/10,14:00,165,176
�����w�O,��������,2022/6/10,15:00,234,154
�����w�O,��������,2022/6/10,16:00,323,192
�����w�O,��������,2022/6/10,17:00,366,284
�����w�O,��������,2022/6/10,18:00,292,293
�����w�O,��������,2022/6/10,19:00,325,342
�����w�O,��������,2022/6/10,20:00,219,153
�����w�O,��������,2022/6/10,21:00,113,83
�����w�O,��������,2022/6/10,22:00,79,58
�����w�O,��������,2022/6/10,23:00,63,28
�����w�O,��������,2022/6/11,0:00,22,8
�����w�O,��������,2022/6/11,1:00,11,3
�����w�O,��������,2022/6/11,2:00,3,11
�����w�O,��������,2022/6/11,3:00,3,4
�����w�O,��������,2022/6/11,4:00,3,0
�����w�O,��������,2022/6/11,5:00,10,12
�����w�O,��������,2022/6/11,6:00,46,31
�����w�O,��������,2022/6/11,7:00,81,98
�����w�O,��������,2022/6/11,8:00,101,141
�����w�O,��������,2022/6/11,9:00,122,152
�����w�O,��������,2022/6/11,10:00,185,217
�����w�O,��������,2022/6/11,11:00,163,298
�����w�O,��������,2022/6/11,12:00,196,252
�����w�O,��������,2022/6/11,13:00,235,202
�����w�O,��������,2022/6/11,14:00,265,225
�����w�O,��������,2022/6/11,15:00,203,194
�����w�O,��������,2022/6/11,16:00,367,368
�����w�O,��������,2022/6/11,17:00,237,233
�����w�O,��������,2022/6/11,18:00,189,224
�����w�O,��������,2022/6/11,19:00,168,176
�����w�O,��������,2022/6/11,20:00,140,99
�����w�O,��������,2022/6/11,21:00,134,112
�����w�O,��������,2022/6/11,22:00,102,59
�����w�O,��������,2022/6/11,23:00,71,52
�����w�O,��������,2022/6/12,0:00,20,9
�����w�O,��������,2022/6/12,1:00,9,0
�����w�O,��������,2022/6/12,2:00,3,3
�����w�O,��������,2022/6/12,3:00,0,1
�����w�O,��������,2022/6/12,4:00,5,4
�����w�O,��������,2022/6/12,5:00,8,10
�����w�O,��������,2022/6/12,6:00,40,38
�����w�O,��������,2022/6/12,7:00,56,69
�����w�O,��������,2022/6/12,8:00,122,188
�����w�O,��������,2022/6/12,9:00,189,297
�����w�O,��������,2022/6/12,10:00,200,299
�����w�O,��������,2022/6/12,11:00,221,335
�����w�O,��������,2022/6/12,12:00,317,405
�����w�O,��������,2022/6/12,13:00,319,301
�����w�O,��������,2022/6/12,14:00,363,261
�����w�O,��������,2022/6/12,15:00,399,247
�����w�O,��������,2022/6/12,16:00,347,260
�����w�O,��������,2022/6/12,17:00,292,246
�����w�O,��������,2022/6/12,18:00,218,191
�����w�O,��������,2022/6/12,19:00,142,156
�����w�O,��������,2022/6/12,20:00,188,131
�����w�O,��������,2022/6/12,21:00,67,69
�����w�O,��������,2022/6/12,22:00,33,25
�����w�O,��������,2022/6/12,23:00,57,18
�����w�O,��������,2022/6/13,0:00,6,1
�����w�O,��������,2022/6/13,1:00,7,1
�����w�O,��������,2022/6/13,2:00,1,2
�����w�O,��������,2022/6/13,3:00,1,0
�����w�O,��������,2022/6/13,4:00,5,5
�����w�O,��������,2022/6/13,5:00,10,11
�����w�O,��������,2022/6/13,6:00,93,55
�����w�O,��������,2022/6/13,7:00,185,338
�����w�O,��������,2022/6/13,8:00,123,279
�����w�O,��������,2022/6/13,9:00,131,114
�����w�O,��������,2022/6/13,10:00,168,138
�����w�O,��������,2022/6/13,11:00,215,294
�����w�O,��������,2022/6/13,12:00,182,186
�����w�O,��������,2022/6/13,13:00,153,136
�����w�O,��������,2022/6/13,14:00,170,146
�����w�O,��������,2022/6/13,15:00,239,164
�����w�O,��������,2022/6/13,16:00,330,266
�����w�O,��������,2022/6/13,17:00,288,201
�����w�O,��������,2022/6/13,18:00,338,214
�����w�O,��������,2022/6/13,19:00,193,205
�����w�O,��������,2022/6/13,20:00,104,96
�����w�O,��������,2022/6/13,21:00,89,105
�����w�O,��������,2022/6/13,22:00,46,54
�����w�O,��������,2022/6/13,23:00,34,29
�����w�O,��������,2022/6/14,0:00,10,2
�����w�O,��������,2022/6/14,1:00,1,0
�����w�O,��������,2022/6/14,2:00,0,1
�����w�O,��������,2022/6/14,3:00,0,0
�����w�O,��������,2022/6/14,4:00,3,2
�����w�O,��������,2022/6/14,5:00,10,6
�����w�O,��������,2022/6/14,6:00,117,70
�����w�O,��������,2022/6/14,7:00,206,346
�����w�O,��������,2022/6/14,8:00,135,221
�����w�O,��������,2022/6/14,9:00,89,107
�����w�O,��������,2022/6/14,10:00,114,132
�����w�O,��������,2022/6/14,11:00,112,132
�����w�O,��������,2022/6/14,12:00,111,96
�����w�O,��������,2022/6/14,13:00,146,100
�����w�O,��������,2022/6/14,14:00,116,81
�����w�O,��������,2022/6/14,15:00,202,94
�����w�O,��������,2022/6/14,16:00,221,156
�����w�O,��������,2022/6/14,17:00,275,174
�����w�O,��������,2022/6/14,18:00,264,154
�����w�O,��������,2022/6/14,19:00,149,164
�����w�O,��������,2022/6/14,20:00,72,76
�����w�O,��������,2022/6/14,21:00,59,50
�����w�O,��������,2022/6/14,22:00,29,16
�����w�O,��������,2022/6/14,23:00,15,24
�����w�O,��������,2022/6/15,0:00,2,4
�����w�O,��������,2022/6/15,1:00,5,2
�����w�O,��������,2022/6/15,2:00,2,3
�����w�O,��������,2022/6/15,3:00,0,3
�����w�O,��������,2022/6/15,4:00,0,3
�����w�O,��������,2022/6/15,5:00,5,4
�����w�O,��������,2022/6/15,6:00,89,69
�����w�O,��������,2022/6/15,7:00,210,334
�����w�O,��������,2022/6/15,8:00,155,257
�����w�O,��������,2022/6/15,9:00,132,117
�����w�O,��������,2022/6/15,10:00,140,157
�����w�O,��������,2022/6/15,11:00,122,135
�����w�O,��������,2022/6/15,12:00,132,172
�����w�O,��������,2022/6/15,13:00,116,95
�����w�O,��������,2022/6/15,14:00,113,129
�����w�O,��������,2022/6/15,15:00,209,127
�����w�O,��������,2022/6/15,16:00,231,179
�����w�O,��������,2022/6/15,17:00,324,206
�����w�O,��������,2022/6/15,18:00,220,218
�����w�O,��������,2022/6/15,19:00,177,158
�����w�O,��������,2022/6/15,20:00,157,143
�����w�O,��������,2022/6/15,21:00,72,54
�����w�O,��������,2022/6/15,22:00,50,34
�����w�O,��������,2022/6/15,23:00,10,16
�����w�O,��������,2022/6/16,0:00,17,7
�����w�O,��������,2022/6/16,1:00,3,0
�����w�O,��������,2022/6/16,2:00,0,1
�����w�O,��������,2022/6/16,3:00,1,1
�����w�O,��������,2022/6/16,4:00,5,6
�����w�O,��������,2022/6/16,5:00,16,9
�����w�O,��������,2022/6/16,6:00,88,59
�����w�O,��������,2022/6/16,7:00,199,319
�����w�O,��������,2022/6/16,8:00,165,268
�����w�O,��������,2022/6/16,9:00,122,110
�����w�O,��������,2022/6/16,10:00,140,180
�����w�O,��������,2022/6/16,11:00,153,165
�����w�O,��������,2022/6/16,12:00,184,150
�����w�O,��������,2022/6/16,13:00,146,138
�����w�O,��������,2022/6/16,14:00,158,151
�����w�O,��������,2022/6/16,15:00,195,135
�����w�O,��������,2022/6/16,16:00,223,167
�����w�O,��������,2022/6/16,17:00,296,203
�����w�O,��������,2022/6/16,18:00,270,214
�����w�O,��������,2022/6/16,19:00,229,201
�����w�O,��������,2022/6/16,20:00,116,85
�����w�O,��������,2022/6/16,21:00,68,73
�����w�O,��������,2022/6/16,22:00,51,40
�����w�O,��������,2022/6/16,23:00,28,16
�����w�O,��������,2022/6/17,0:00,22,10
�����w�O,��������,2022/6/17,1:00,3,2
�����w�O,��������,2022/6/17,2:00,1,1
�����w�O,��������,2022/6/17,3:00,0,0
�����w�O,��������,2022/6/17,4:00,2,4
�����w�O,��������,2022/6/17,5:00,11,13
�����w�O,��������,2022/6/17,6:00,108,108
�����w�O,��������,2022/6/17,7:00,196,310
�����w�O,��������,2022/6/17,8:00,139,290
�����w�O,��������,2022/6/17,9:00,128,128
�����w�O,��������,2022/6/17,10:00,171,198
�����w�O,��������,2022/6/17,11:00,151,189
�����w�O,��������,2022/6/17,12:00,179,210
�����w�O,��������,2022/6/17,13:00,170,179
�����w�O,��������,2022/6/17,14:00,197,170
�����w�O,��������,2022/6/17,15:00,261,176
�����w�O,��������,2022/6/17,16:00,333,317
�����w�O,��������,2022/6/17,17:00,371,256
�����w�O,��������,2022/6/17,18:00,341,312
�����w�O,��������,2022/6/17,19:00,358,458
�����w�O,��������,2022/6/17,20:00,156,130
�����w�O,��������,2022/6/17,21:00,134,129
�����w�O,��������,2022/6/17,22:00,85,79
�����w�O,��������,2022/6/17,23:00,61,36
�����w�O,��������,2022/6/18,0:00,29,8
�����w�O,��������,2022/6/18,1:00,4,2
�����w�O,��������,2022/6/18,2:00,4,2
�����w�O,��������,2022/6/18,3:00,0,1
�����w�O,��������,2022/6/18,4:00,11,6
�����w�O,��������,2022/6/18,5:00,16,14
�����w�O,��������,2022/6/18,6:00,49,36
�����w�O,��������,2022/6/18,7:00,89,194
�����w�O,��������,2022/6/18,8:00,126,204
�����w�O,��������,2022/6/18,9:00,191,275
�����w�O,��������,2022/6/18,10:00,281,374
�����w�O,��������,2022/6/18,11:00,255,304
�����w�O,��������,2022/6/18,12:00,332,323
�����w�O,��������,2022/6/18,13:00,351,343
�����w�O,��������,2022/6/18,14:00,315,259
�����w�O,��������,2022/6/18,15:00,326,217
�����w�O,��������,2022/6/18,16:00,306,224
�����w�O,��������,2022/6/18,17:00,368,420
�����w�O,��������,2022/6/18,18:00,236,265
�����w�O,��������,2022/6/18,19:00,188,219
�����w�O,��������,2022/6/18,20:00,188,164
�����w�O,��������,2022/6/18,21:00,156,118
�����w�O,��������,2022/6/18,22:00,128,88
�����w�O,��������,2022/6/18,23:00,52,15
�����w�O,��������,2022/6/19,0:00,20,11
�����w�O,��������,2022/6/19,1:00,13,5
�����w�O,��������,2022/6/19,2:00,10,14
�����w�O,��������,2022/6/19,3:00,2,2
�����w�O,��������,2022/6/19,4:00,8,5
�����w�O,��������,2022/6/19,5:00,18,7
�����w�O,��������,2022/6/19,6:00,41,18
�����w�O,��������,2022/6/19,7:00,69,105
�����w�O,��������,2022/6/19,8:00,85,147
�����w�O,��������,2022/6/19,9:00,177,230
�����w�O,��������,2022/6/19,10:00,219,324
�����w�O,��������,2022/6/19,11:00,257,417
�����w�O,��������,2022/6/19,12:00,266,335
�����w�O,��������,2022/6/19,13:00,349,338
�����w�O,��������,2022/6/19,14:00,387,297
�����w�O,��������,2022/6/19,15:00,349,196
�����w�O,��������,2022/6/19,16:00,275,194
�����w�O,��������,2022/6/19,17:00,232,202
�����w�O,��������,2022/6/19,18:00,179,211
�����w�O,��������,2022/6/19,19:00,108,146
�����w�O,��������,2022/6/19,20:00,177,252
�����w�O,��������,2022/6/19,21:00,69,51
�����w�O,��������,2022/6/19,22:00,44,24
�����w�O,��������,2022/6/19,23:00,27,8
�����w�O,��������,2022/6/20,0:00,6,1
�����w�O,��������,2022/6/20,1:00,2,0
�����w�O,��������,2022/6/20,2:00,5,6
�����w�O,��������,2022/6/20,3:00,1,1
�����w�O,��������,2022/6/20,4:00,5,2
�����w�O,��������,2022/6/20,5:00,10,7
�����w�O,��������,2022/6/20,6:00,101,60
�����w�O,��������,2022/6/20,7:00,199,337
�����w�O,��������,2022/6/20,8:00,131,271
�����w�O,��������,2022/6/20,9:00,151,147
�����w�O,��������,2022/6/20,10:00,169,168
�����w�O,��������,2022/6/20,11:00,142,171
�����w�O,��������,2022/6/20,12:00,174,192
�����w�O,��������,2022/6/20,13:00,198,169
�����w�O,��������,2022/6/20,14:00,150,123
�����w�O,��������,2022/6/20,15:00,219,127
�����w�O,��������,2022/6/20,16:00,247,178
�����w�O,��������,2022/6/20,17:00,281,184
�����w�O,��������,2022/6/20,18:00,273,179
�����w�O,��������,2022/6/20,19:00,138,154
�����w�O,��������,2022/6/20,20:00,88,78
�����w�O,��������,2022/6/20,21:00,113,105
�����w�O,��������,2022/6/20,22:00,35,17
�����w�O,��������,2022/6/20,23:00,8,11
�����w�O,��������,2022/6/21,0:00,1,2
�����w�O,��������,2022/6/21,1:00,1,1
�����w�O,��������,2022/6/21,2:00,2,1
�����w�O,��������,2022/6/21,3:00,1,0
�����w�O,��������,2022/6/21,4:00,2,1
�����w�O,��������,2022/6/21,5:00,14,8
�����w�O,��������,2022/6/21,6:00,89,84
�����w�O,��������,2022/6/21,7:00,225,334
�����w�O,��������,2022/6/21,8:00,128,274
�����w�O,��������,2022/6/21,9:00,78,90
�����w�O,��������,2022/6/21,10:00,101,112
�����w�O,��������,2022/6/21,11:00,188,125
�����w�O,��������,2022/6/21,12:00,133,134
�����w�O,��������,2022/6/21,13:00,106,73
�����w�O,��������,2022/6/21,14:00,88,101
�����w�O,��������,2022/6/21,15:00,159,91
�����w�O,��������,2022/6/21,16:00,250,141
�����w�O,��������,2022/6/21,17:00,318,167
�����w�O,��������,2022/6/21,18:00,282,167
�����w�O,��������,2022/6/21,19:00,144,130
�����w�O,��������,2022/6/21,20:00,73,54
�����w�O,��������,2022/6/21,21:00,95,66
�����w�O,��������,2022/6/21,22:00,34,25
�����w�O,��������,2022/6/21,23:00,20,9
�����w�O,��������,2022/6/22,0:00,0,10
�����w�O,��������,2022/6/22,1:00,1,1
�����w�O,��������,2022/6/22,2:00,6,0
�����w�O,��������,2022/6/22,3:00,1,4
�����w�O,��������,2022/6/22,4:00,7,5
�����w�O,��������,2022/6/22,5:00,7,8
�����w�O,��������,2022/6/22,6:00,93,80
�����w�O,��������,2022/6/22,7:00,202,363
�����w�O,��������,2022/6/22,8:00,136,249
�����w�O,��������,2022/6/22,9:00,120,103
�����w�O,��������,2022/6/22,10:00,149,159
�����w�O,��������,2022/6/22,11:00,144,149
�����w�O,��������,2022/6/22,12:00,134,128
�����w�O,��������,2022/6/22,13:00,126,117
�����w�O,��������,2022/6/22,14:00,140,123
�����w�O,��������,2022/6/22,15:00,213,148
�����w�O,��������,2022/6/22,16:00,334,153
�����w�O,��������,2022/6/22,17:00,413,278
�����w�O,��������,2022/6/22,18:00,290,217
�����w�O,��������,2022/6/22,19:00,201,185
�����w�O,��������,2022/6/22,20:00,111,69
�����w�O,��������,2022/6/22,21:00,62,60
�����w�O,��������,2022/6/22,22:00,66,34
�����w�O,��������,2022/6/22,23:00,42,24
�����w�O,��������,2022/6/23,0:00,10,5
�����w�O,��������,2022/6/23,1:00,2,1
�����w�O,��������,2022/6/23,2:00,2,2
�����w�O,��������,2022/6/23,3:00,5,4
�����w�O,��������,2022/6/23,4:00,2,3
�����w�O,��������,2022/6/23,5:00,9,10
�����w�O,��������,2022/6/23,6:00,94,69
�����w�O,��������,2022/6/23,7:00,201,330
�����w�O,��������,2022/6/23,8:00,113,257
�����w�O,��������,2022/6/23,9:00,119,93
�����w�O,��������,2022/6/23,10:00,131,121
�����w�O,��������,2022/6/23,11:00,145,146
�����w�O,��������,2022/6/23,12:00,140,142
�����w�O,��������,2022/6/23,13:00,137,99
�����w�O,��������,2022/6/23,14:00,116,105
�����w�O,��������,2022/6/23,15:00,183,111
�����w�O,��������,2022/6/23,16:00,218,173
�����w�O,��������,2022/6/23,17:00,285,218
�����w�O,��������,2022/6/23,18:00,252,177
�����w�O,��������,2022/6/23,19:00,188,144
�����w�O,��������,2022/6/23,20:00,138,101
�����w�O,��������,2022/6/23,21:00,69,59
�����w�O,��������,2022/6/23,22:00,38,22
�����w�O,��������,2022/6/23,23:00,16,11
�����w�O,��������,2022/6/24,0:00,9,4
�����w�O,��������,2022/6/24,1:00,1,1
�����w�O,��������,2022/6/24,2:00,2,1
�����w�O,��������,2022/6/24,3:00,0,2
�����w�O,��������,2022/6/24,4:00,5,2
�����w�O,��������,2022/6/24,5:00,13,8
�����w�O,��������,2022/6/24,6:00,100,73
�����w�O,��������,2022/6/24,7:00,222,305
�����w�O,��������,2022/6/24,8:00,131,238
�����w�O,��������,2022/6/24,9:00,135,163
�����w�O,��������,2022/6/24,10:00,171,185
�����w�O,��������,2022/6/24,11:00,159,169
�����w�O,��������,2022/6/24,12:00,181,165
�����w�O,��������,2022/6/24,13:00,165,185
�����w�O,��������,2022/6/24,14:00,168,106
�����w�O,��������,2022/6/24,15:00,211,131
�����w�O,��������,2022/6/24,16:00,309,190
�����w�O,��������,2022/6/24,17:00,324,235
�����w�O,��������,2022/6/24,18:00,257,243
�����w�O,��������,2022/6/24,19:00,195,190
�����w�O,��������,2022/6/24,20:00,115,95
�����w�O,��������,2022/6/24,21:00,123,96
�����w�O,��������,2022/6/24,22:00,141,80
�����w�O,��������,2022/6/24,23:00,55,16
�����w�O,��������,2022/6/25,0:00,16,6
�����w�O,��������,2022/6/25,1:00,6,3
�����w�O,��������,2022/6/25,2:00,3,3
�����w�O,��������,2022/6/25,3:00,4,4
�����w�O,��������,2022/6/25,4:00,3,6
�����w�O,��������,2022/6/25,5:00,16,10
�����w�O,��������,2022/6/25,6:00,48,28
�����w�O,��������,2022/6/25,7:00,79,170
�����w�O,��������,2022/6/25,8:00,122,200
�����w�O,��������,2022/6/25,9:00,165,172